Location: Devargunta
(16.7631°N, 80.9077°E)
Time: 11:48:23
(UTC+00:00)

Cosmos 540 Rocket - Pass Details

Date: 03 December 2021
Orbit: 739 x 754 km, 74.1° (Epoch: 26 January)

Event Time Altitude Azimuth Distance (km) Brightness Sun altitude
Exits shadow 23:34:42 31° 274° (W) 1,292 4.1 -17.9°
Maximum altitude 23:35:20 32° 260° (W) 1,264 4.2 -17.8°
Drops below altitude 10° 23:39:52 10° 197° (SSW) 2,265 6.0 -16.7°
Sets 23:42:27 0° 188° (S) 3,190 6.9 -16.2°
